| time (UTC) | temp F | wind direction | speed MPH | gust MPH | rain 1hr in | rain 24hr in | rain mn in | humidity % | barometer mb |
| 20260509221548 | 91 | 52 | 0.0 | 0.0 | 0.00 | 0.00 | 0.00 | 32 | |
| 20260509220048 | 91 | 52 | 0.0 | 3.0 | 0.00 | 0.00 | 0.00 | 32 | |
| 20260509214553 | 91 | 81 | 0.0 | 2.0 | 0.00 | 0.00 | 0.00 | 34 | |
| 20260509213050 | 91 | 90 | 0.0 | 2.0 | 0.00 | 0.00 | 0.00 | 32 | |
| 20260509211602 | 91 | 108 | 0.0 | 3.0 | 0.00 | 0.00 | 0.00 | 34 | |
| 20260509210059 | 91 | 112 | 0.0 | 3.0 | 0.00 | 0.00 | 0.00 | 33 | |
| 20260509204601 | 91 | 234 | 0.0 | 0.0 | 0.00 | 0.00 | 0.00 | 35 | |
| 20260509203001 | 91 | 230 | 0.0 | 0.0 | 0.00 | 0.00 | 0.00 | 35 | |
| 20260509201505 | 91 | 218 | 0.0 | 3.0 | 0.00 | 0.00 | 0.00 | 35 | |
| 20260509200007 | 91 | 178 | 0.0 | 2.0 | 0.00 | 0.00 | 0.00 | 36 | |
| 20260509194502 | 90 | 226 | 0.0 | 3.0 | 0.00 | 0.00 | 0.00 | 34 | |
| 20260509193117 | 89 | 44 | 1.0 | 4.0 | 0.00 | 0.00 | 0.00 | 35 | |
| 20260509191601 | 89 | 45 | 0.0 | 2.0 | 0.00 | 0.00 | 0.00 | 35 | |
| 20260509190006 | 89 | 341 | 0.0 | 4.0 | 0.00 | 0.00 | 0.00 | 37 | |
| 20260509184502 | 89 | 289 | 0.0 | 3.0 | 0.00 | 0.00 | 0.00 | 36 | |
| 20260509183102 | 87 | 69 | 0.0 | 2.0 | 0.00 | 0.00 | 0.00 | 38 | |
| 20260509181501 | 86 | 141 | 0.0 | 3.0 | 0.00 | 0.00 | 0.00 | 39 | |
| 20260509180100 | 85 | 312 | 0.0 | 3.0 | 0.00 | 0.00 | 0.00 | 41 | |
| 20260509174602 | 84 | 262 | 0.0 | 3.0 | 0.00 | 0.00 | 0.00 | 41 | |
| 20260509173106 | 83 | 277 | 0.0 | 3.0 | 0.00 | 0.00 | 0.00 | 43 | |
| 20260509171618 | 82 | 275 | 0.0 | 3.0 | 0.00 | 0.00 | 0.00 | 44 | |
| 20260509170051 | 81 | 32 | 0.0 | 5.0 | 0.00 | 0.00 | 0.00 | 45 | |
| 20260509164550 | 80 | 342 | 1.0 | 5.0 | 0.00 | 0.00 | 0.00 | 46 | |
| 20260509163058 | 79 | 271 | 1.0 | 7.0 | 0.00 | 0.00 | 0.00 | 47 | |
| 20260509161552 | 78 | 256 | 2.0 | 5.0 | 0.00 | 0.00 | 0.00 | 48 | |
| 20260509160047 | 77 | 29 | 1.0 | 3.0 | 0.00 | 0.00 | 0.00 | 49 | |
| 20260509154550 | 77 | 27 | 0.0 | 4.0 | 0.00 | 0.00 | 0.00 | 50 | |
| 20260509153049 | 75 | 274 | 1.0 | 5.0 | 0.00 | 0.00 | 0.00 | 51 | |
| 20260509151541 | 74 | 329 | 1.0 | 4.0 | 0.00 | 0.00 | 0.00 | 53 | |
| 20260509150050 | 73 | 80 | 1.0 | 3.0 | 0.00 | 0.00 | 0.00 | 57 | |
| 20260509144627 | 72 | 273 | 1.0 | 5.0 | 0.00 | 0.00 | 0.00 | 59 | |
| 20260509143047 | 71 | 272 | 0.0 | 3.0 | 0.00 | 0.00 | 0.00 | 63 | |
| 20260509141546 | 71 | 312 | 0.0 | 2.0 | 0.00 | 0.00 | 0.00 | 66 | |
| 20260509140046 | 70 | 279 | 0.0 | 4.0 | 0.00 | 0.00 | 0.00 | 67 | |
| 20260509134547 | 70 | 339 | 0.0 | 3.0 | 0.00 | 0.00 | 0.00 | 68 | |
| 20260509133051 | 70 | 165 | 0.0 | 4.0 | 0.00 | 0.00 | 0.00 | 68 | |
| 20260509131547 | 69 | 273 | 1.0 | 4.0 | 0.00 | 0.00 | 0.00 | 68 | |
| 20260509130059 | 69 | 299 | 0.0 | 3.0 | 0.00 | 0.00 | 0.00 | 67 | |
| 20260509124608 | 69 | 301 | 0.0 | 4.0 | 0.00 | 0.00 | 0.00 | 67 | |
| 20260509123102 | 68 | 309 | 1.0 | 3.0 | 0.00 | 0.00 | 0.00 | 67 | |
| 20260509121606 | 68 | 268 | 0.0 | 2.0 | 0.00 | 0.00 | 0.00 | 66 | |
| 20260509120007 | 68 | 266 | 1.0 | 3.0 | 0.00 | 0.00 | 0.00 | 66 | |
| 20260509114505 | 68 | 283 | 0.0 | 4.0 | 0.00 | 0.00 | 0.00 | 65 | |
| 20260509113008 | 68 | 282 | 1.0 | 5.0 | 0.00 | 0.00 | 0.00 | 65 | |
| 20260509111511 | 67 | 278 | 1.0 | 4.0 | 0.00 | 0.00 | 0.00 | 65 | |
| 20260509110012 | 68 | 306 | 0.0 | 4.0 | 0.00 | 0.00 | 0.00 | 65 | |
| 20260509104527 | 68 | 316 | 0.0 | 5.0 | 0.00 | 0.00 | 0.00 | 65 | |
| 20260509103010 | 68 | 320 | 0.0 | 2.0 | 0.00 | 0.00 | 0.00 | 66 | |
| 20260509101517 | 68 | 288 | 1.0 | 4.0 | 0.00 | 0.00 | 0.00 | 67 | |
| 20260509100026 | 68 | 270 | 1.0 | 3.0 | 0.00 | 0.00 | 0.00 | 67 | |
| 20260509094521 | 69 | 264 | 1.0 | 3.0 | 0.00 | 0.00 | 0.00 | 68 | |
| 20260509093019 | 69 | 264 | 0.0 | 2.0 | 0.00 | 0.00 | 0.00 | 68 | |
| 20260509091519 | 69 | 264 | 0.0 | 7.0 | 0.00 | 0.00 | 0.00 | 69 | |
| 20260509090019 | 70 | 71 | 0.0 | 6.0 | 0.00 | 0.00 | 0.00 | 69 | |
| 20260509084525 | 69 | 227 | 1.0 | 8.0 | 0.00 | 0.00 | 0.00 | 69 | |
| 20260509083018 | 69 | 257 | 2.0 | 6.0 | 0.00 | 0.00 | 0.00 | 69 | |
| 20260509081528 | 69 | 169 | 0.0 | 3.0 | 0.00 | 0.00 | 0.00 | 69 | |
| 20260509080022 | 69 | 186 | 0.0 | 5.0 | 0.00 | 0.00 | 0.00 | 69 | |
| 20260509074522 | 69 | 223 | 0.0 | 7.0 | 0.00 | 0.00 | 0.00 | 68 | |
| 20260509073025 | 69 | 232 | 2.0 | 5.0 | 0.00 | 0.00 | 0.00 | 68 | |
| 20260509071527 | 69 | 248 | 1.0 | 5.0 | 0.00 | 0.00 | 0.00 | 68 | |
| 20260509070026 | 69 | 277 | 0.0 | 3.0 | 0.00 | 0.00 | 0.00 | 67 | |
| 20260509064530 | 69 | 300 | 0.0 | 4.0 | 0.00 | 0.00 | 0.00 | 67 | |
| 20260509063031 | 69 | 181 | 0.0 | 0.0 | 0.00 | 0.00 | 0.00 | 66 | |
| 20260509061544 | 69 | 166 | 0.0 | 0.0 | 0.00 | 0.00 | 0.00 | 65 | |
| 20260509060037 | 69 | 166 | 0.0 | 0.0 | 0.00 | 0.00 | 0.00 | 65 | |
| 20260509054548 | 70 | 166 | 0.0 | 0.0 | 0.00 | 0.00 | 0.00 | 65 | |
| 20260509053039 | 70 | 166 | 0.0 | 0.0 | 0.00 | 0.00 | 0.00 | 64 | |
| 20260509051542 | 70 | 166 | 0.0 | 0.0 | 0.00 | 0.00 | 0.00 | 64 | |
| 20260509050055 | 71 | 167 | 0.0 | 0.0 | 0.00 | 0.00 | 0.00 | 63 | |
| 20260509044551 | 71 | 167 | 0.0 | 0.0 | 0.00 | 0.00 | 0.00 | 63 | |
| 20260509043052 | 72 | 167 | 0.0 | 0.0 | 0.00 | 0.00 | 0.00 | 63 | |
| 20260509041554 | 72 | 167 | 0.0 | 0.0 | 0.00 | 0.00 | 0.00 | 63 | |
| 20260509040059 | 72 | 167 | 0.0 | 0.0 | 0.00 | 0.00 | 0.00 | 63 | |
| 20260509034504 | 72 | 167 | 0.0 | 0.0 | 0.00 | 0.00 | 0.00 | 63 | |
| 20260509033006 | 72 | 167 | 0.0 | 0.0 | 0.00 | 0.00 | 0.00 | 62 | |
| 20260509031508 | 72 | 167 | 0.0 | 0.0 | 0.00 | 0.00 | 0.00 | 62 | |
| 20260509030008 | 72 | 167 | 0.0 | 0.0 | 0.00 | 0.00 | 0.00 | 62 | |
| 20260509024509 | 72 | 167 | 0.0 | 0.0 | 0.00 | 0.00 | 0.00 | 61 | |
| 20260509023016 | 72 | 167 | 0.0 | 0.0 | 0.00 | 0.00 | 0.00 | 61 | |
| 20260509021519 | 73 | 162 | 0.0 | 2.0 | 0.00 | 0.00 | 0.00 | 60 | |
| 20260509020018 | 73 | 162 | 0.0 | 2.0 | 0.00 | 0.00 | 0.00 | 60 | |
| 20260509014526 | 73 | 162 | 0.0 | 2.0 | 0.00 | 0.00 | 0.00 | 59 | |
| 20260509013038 | 73 | 161 | 0.0 | 0.0 | 0.00 | 0.00 | 0.00 | 58 | |
| 20260509011529 | 74 | 161 | 0.0 | 0.0 | 0.00 | 0.00 | 0.00 | 58 | |
| 20260509010031 | 74 | 218 | 0.0 | 2.0 | 0.00 | 0.00 | 0.00 | 57 | |
| 20260509004536 | 74 | 218 | 0.0 | 2.0 | 0.00 | 0.00 | 0.00 | 57 | |
| 20260509003038 | 74 | 228 | 0.0 | 2.0 | 0.00 | 0.00 | 0.00 | 57 | |
| 20260509001545 | 74 | 229 | 0.0 | 3.0 | 0.00 | 0.00 | 0.00 | 56 | |
| 20260509000047 | 75 | 216 | 0.0 | 3.0 | 0.00 | 0.00 | 0.00 | 55 | |
| 20260508234546 | 75 | 202 | 0.0 | 2.0 | 0.00 | 0.00 | 0.00 | 54 | |
| 20260508233052 | 76 | 185 | 0.0 | 3.0 | 0.00 | 0.00 | 0.00 | 54 | |
| 20260508231554 | 76 | 187 | 0.0 | 3.0 | 0.00 | 0.00 | 0.00 | 52 | |
| 20260508230056 | 77 | 191 | 1.0 | 4.0 | 0.00 | 0.00 | 0.00 | 51 | |
| 20260508224603 | 78 | 231 | 1.0 | 4.0 | 0.00 | 0.00 | 0.00 | 50 | |
| 20260508223053 | 78 | 229 | 2.0 | 5.0 | 0.00 | 0.00 | 0.00 | 50 |